Dati Storici

Data ora Umidita' aria (%) Temperatura aria (°C) Rad globale (W/m²) Gonioanemometro (°) Tacoanemometro (m/s) Pioggia (mm)
30-10-2012 06:50 81.3 % 2.297 2.145 34.737 2.743 0
30-10-2012 06:40 81.4 % 2.321 2.12 19.591 1.816 0
30-10-2012 06:30 81.3 % 2.459 1.979 25.699 1.184 0
30-10-2012 06:20 81.2 % 2.569 1.632 25.834 1.766 0
30-10-2012 06:10 81.1 % 2.578 1.581 339.649 1.271 0
30-10-2012 06:00 80.8 % 2.583 1.607 352.749 0.978 0
30-10-2012 05:50 80.7 % 2.679 1.568 17.662 0.981 0
30-10-2012 05:40 80.5 % 2.708 1.722 207.57 0.706 0
30-10-2012 05:30 80.2 % 2.731 1.79 11.796 0.501 0
30-10-2012 05:20 80.3 % 2.789 1.739 294.032 0.692 0
30-10-2012 05:10 80.7 % 2.736 1.503 2.705 1.555 0
30-10-2012 05:00 81.1 % 2.602 1.517 65.65 0.364 0
30-10-2012 04:50 81.3 % 2.614 1.44 1.026 0.853 0
30-10-2012 04:40 81.4 % 2.718 1.529 39.621 0.977 0
30-10-2012 04:30 81.3 % 2.585 1.299 346.595 0.755 0
30-10-2012 04:20 81.1 % 2.755 1.632 74.266 0.277 0
30-10-2012 04:10 81 % 2.845 1.478 22.51 1.476 0
30-10-2012 04:00 81 % 2.962 1.313 358.885 0.794 0
30-10-2012 03:50 80.8 % 3.002 1.415 334.308 0.697 0
30-10-2012 03:40 80.6 % 3.112 1.39 15.232 0.771 0

I dati sono presentati in modo automatico a scopo informativo. In seguito a verifica i dati possono subire modifiche o essere invalidati e non riportati negli archivi definitivi.